KB1FFS Weather Reports


time (UTC)temp
F
wind
direction
speed
knots
gust
knots
rain 1hr
in
rain 24hr
in
rain mn
in
humidity
%
barometer
mb
20260509162014 86 194 0.9 1.7 0.00 0.00 0.00 46 1012.1
20260509161510 86 269 0.0 1.7 0.00 0.00 0.00 49 1012.1
20260509161011 85 196 0.0 1.7 0.00 0.00 0.00 54 1012.0
20260509160506 85 245 0.0 3.5 0.00 0.00 0.00 48 1012.0
20260509160002 85 342 1.7 2.6 0.00 0.00 0.00 49 1011.9
20260509155459 85 164 0.9 2.6 0.00 0.00 0.00 49 1011.8
20260509154955 85 129 0.0 1.7 0.00 0.00 0.00 50 1011.8
20260509154451 84 147 0.0 1.7 0.00 0.00 0.00 51 1011.7
20260509153949 84 94 0.9 1.7 0.00 0.00 0.00 51 1012.0
20260509153445 84 276 0.9 2.6 0.00 0.00 0.00 51 1011.7
20260509152943 83 159 0.9 2.6 0.00 0.00 0.00 54 1011.8
20260509152438 82 158 0.9 2.6 0.00 0.00 0.00 55 1012.0
20260509151935 82 92 0.9 2.6 0.00 0.00 0.00 53 1012.0
20260509151432 81 174 0.9 1.7 0.00 0.00 0.00 55 1012.0
20260509150930 81 112 0.9 2.6 0.00 0.00 0.00 55 1011.9
20260509150427 81 10 0.0 1.7 0.00 0.00 0.00 56 1012.1
20260509145925 80 173 1.7 3.5 0.00 0.00 0.00 57 1012.1
20260509145425 80 120 1.7 2.6 0.00 0.00 0.00 55 1012.3
20260509144921 80 174 0.9 2.6 0.00 0.00 0.00 56 1012.0
20260509144418 79 107 0.0 1.7 0.00 0.00 0.00 58 1012.1
20260509143915 79 320 1.7 3.5 0.00 0.00 0.00 58 1012.1
20260509143412 78 159 0.9 2.6 0.00 0.00 0.00 62 1012.1
20260509142908 78 187 0.0 1.7 0.00 0.00 0.00 65 1012.0
20260509142405 78 115 1.7 1.7 0.00 0.00 0.00 64 1012.1
20260509141901 78 273 0.0 2.6 0.00 0.00 0.00 66 1012.0
20260509141358 77 167 0.9 2.6 0.00 0.00 0.00 70 1012.1
20260509140854 76 146 0.0 1.7 0.00 0.00 0.00 72 1012.0
20260509140351 76 156 0.0 2.6 0.00 0.00 0.00 74 1011.9
20260509135849 75 50 0.0 1.7 0.00 0.00 0.00 75 1012.0
20260509135347 75 177 0.0 1.7 0.00 0.00 0.00 76 1012.0
20260509134844 75 198 0.9 1.7 0.00 0.00 0.00 77 1012.2
20260509134341 74 176 0.0 0.9 0.00 0.00 0.00 78 1012.0
20260509133837 74 119 0.9 1.7 0.00 0.00 0.00 78 1011.8
20260509133334 74 109 0.9 2.6 0.00 0.00 0.00 78 1012.1
20260509132833 74 189 0.9 2.6 0.00 0.00 0.00 78 1011.8
20260509132331 73 96 0.9 2.6 0.00 0.00 0.00 80 1011.8
20260509131828 73 63 0.0 2.6 0.00 0.00 0.00 81 1011.9
20260509131325 72 38 0.9 1.7 0.00 0.00 0.00 83 1011.9
20260509130821 71 78 1.7 1.7 0.00 0.00 0.00 84 1011.9
20260509130317 71 104 1.7 2.6 0.00 0.00 0.00 85 1012.1
20260509125814 71 168 1.7 2.6 0.00 0.00 0.00 87 1012.0
20260509125310 70 109 1.7 1.7 0.00 0.00 0.00 87 1012.0
20260509124807 70 42 0.0 1.7 0.00 0.00 0.00 88 1012.0
20260509124303 69 126 0.9 1.7 0.00 0.00 0.00 89 1012.1
20260509123802 69 150 1.7 1.7 0.00 0.00 0.00 89 1012.0
20260509123259 69 133 0.0 1.7 0.00 0.00 0.00 90 1011.8
20260509122754 69 182 0.9 1.7 0.00 0.00 0.00 90 1011.9
20260509122251 69 140 1.7 1.7 0.00 0.00 0.00 90 1011.8
20260509121748 68 142 0.0 1.7 0.00 0.00 0.00 90 1011.6
20260509121245 68 106 1.7 2.6 0.00 0.00 0.00 90 1011.7
20260509120743 68 98 0.9 1.7 0.00 0.00 0.00 90 1011.6
20260509120241 68 59 0.9 1.7 0.00 0.00 0.00 90 1011.7
20260509115739 68 18 0.0 1.7 0.00 0.00 0.00 90 1011.5
20260509115235 68 109 0.9 1.7 0.00 0.00 0.00 90 1011.6
20260509114734 68 204 2.6 3.5 0.00 0.00 0.00 90 1011.5
20260509114232 68 156 0.0 1.7 0.00 0.00 0.00 90 1011.1
20260509113730 68 136 0.9 1.7 0.00 0.00 0.00 89 1011.2
20260509113227 68 116 1.7 1.7 0.00 0.00 0.00 89 1010.9
20260509112724 68 94 0.9 1.7 0.00 0.00 0.00 89 1011.1
20260509112221 68 63 1.7 2.6 0.00 0.00 0.00 89 1010.9
20260509111718 68 110 1.7 3.5 0.00 0.00 0.00 88 1010.9
20260509111215 68 115 1.7 3.5 0.00 0.00 0.00 87 1010.9
20260509110713 68 103 0.9 2.6 0.00 0.00 0.00 87 1010.4
20260509110209 69 32 0.0 2.6 0.00 0.00 0.00 86 1010.5
20260509105707 69 62 1.7 2.6 0.00 0.00 0.00 86 1010.7
20260509105204 69 248 0.9 2.6 0.00 0.00 0.00 86 1010.5
20260509104701 69 62 1.7 2.6 0.00 0.00 0.00 85 1010.3
20260509104158 69 129 0.0 2.6 0.00 0.00 0.00 84 1010.4
20260509103656 69 78 1.7 4.3 0.00 0.00 0.00 84 1010.4
20260509103153 69 88 1.7 1.7 0.00 0.00 0.00 84 1010.6
20260509102651 69 75 0.9 1.7 0.00 0.00 0.00 83 1010.2
20260509102148 69 19 0.0 1.7 0.00 0.00 0.00 82 1010.2
20260509101644 69 89 0.9 1.7 0.00 0.00 0.00 82 1009.9
20260509101141 69 76 0.9 1.7 0.00 0.00 0.00 82 1010.1
20260509100638 69 78 0.9 0.9 0.00 0.00 0.00 81 1010.0
20260509100135 69 107 0.0 1.7 0.00 0.00 0.00 80 1010.3
20260509095632 70 92 0.0 1.7 0.00 0.00 0.00 79 1010.0
20260509095129 70 105 0.0 1.7 0.00 0.00 0.00 79 1009.9
20260509094626 71 89 0.0 0.9 0.00 0.00 0.00 78 1009.8
20260509094123 71 84 0.0 0.9 0.00 0.00 0.00 77 1009.6
20260509093621 71 126 0.0 0.9 0.00 0.00 0.00 76 1009.5
20260509093118 72 136 0.0 1.7 0.00 0.00 0.00 75 1009.4
20260509092616 72 84 0.9 1.7 0.00 0.00 0.00 74 1009.4
20260509092114 73 88 0.0 1.7 0.00 0.00 0.00 72 1009.3
20260509091612 73 219 0.0 1.7 0.00 0.00 0.00 71 1009.0
20260509091108 73 112 1.7 1.7 0.00 0.00 0.00 70 1009.2
20260509090606 73 109 1.7 1.7 0.00 0.00 0.00 69 1009.4
20260509085600 73 165 0.9 2.6 0.00 0.00 0.00 67 1009.1
20260509085056 74 138 0.9 2.6 0.00 0.00 0.00 68 1009.3
20260509084553 73 54 2.6 4.3 0.00 0.00 0.00 69 1009.6
20260509084050 72 83 3.5 7.8 0.00 0.00 0.00 71 1009.8
20260509083548 72 115 0.0 3.5 0.00 0.00 0.00 76 1008.1
20260509083044 71 44 1.7 3.5 0.00 0.00 0.00 77 1007.1
20260509082542 71 4 0.9 2.6 0.00 0.00 0.00 79 1006.8
20260509082039 71 119 1.7 3.5 0.00 0.00 0.00 79 1006.7
20260509081536 71 22 1.7 2.6 0.00 0.00 0.00 79 1007.4
20260509081032 71 108 0.9 2.6 0.00 0.00 0.00 80 1007.1
20260509080531 71 139 0.9 2.6 0.00 0.00 0.00 81 1007.4
20260509080029 70 51 0.0 2.6 0.00 0.00 0.00 82 1007.9
20260509075525 70 38 1.7 2.6 0.00 0.00 0.00 86 1008.4
20260509075024 70 129 0.9 3.5 0.00 0.00 0.00 88 1008.9
20260509074520 70 24 1.7 1.7 0.00 0.00 0.00 88 1009.5
20260509074017 70 356 0.0 2.6 0.00 0.00 0.00 88 1010.0
20260509073513 70 32 1.7 3.5 0.00 0.00 0.00 88 1010.1
20260509073010 70 91 1.7 3.5 0.00 0.00 0.00 88 1010.3
20260509072506 70 83 0.9 1.7 0.00 0.00 0.00 88 1010.6
20260509072003 70 76 0.0 2.6 0.00 0.00 0.00 88 1010.9
20260509071500 70 21 1.7 2.6 0.00 0.00 0.00 88 1010.8
20260509070957 70 3 1.7 4.3 0.00 0.00 0.00 88 1011.2
20260509070454 70 46 1.7 2.6 0.00 0.00 0.00 88 1011.1
20260509065950 70 63 2.6 3.5 0.00 0.00 0.00 89 1011.7
20260509065446 70 70 0.0 3.5 0.00 0.00 0.00 88 1011.8
20260509064942 70 46 0.9 1.7 0.00 0.00 0.00 88 1011.5
20260509064440 70 67 0.0 1.7 0.00 0.00 0.00 88 1011.6
20260509063938 70 46 0.9 4.3 0.00 0.00 0.00 88 1012.1
20260509063439 70 73 0.0 2.6 0.00 0.00 0.00 88 1012.1
20260509062936 70 44 0.0 1.7 0.00 0.00 0.00 88 1012.2
20260509062433 70 48 2.6 3.5 0.00 0.00 0.00 88 1012.2
20260509061931 70 118 0.0 2.6 0.00 0.00 0.00 88 1012.2
20260509061428 69 66 0.9 2.6 0.00 0.00 0.00 88 1012.5
20260509060925 69 34 0.9 2.6 0.00 0.00 0.00 88 1012.5
20260509060423 69 81 0.9 0.9 0.00 0.00 0.00 88 1012.3
20260509055917 69 69 0.9 1.7 0.00 0.00 0.00 88 1012.2
20260509055413 70 44 0.0 1.7 0.00 0.00 0.00 88 1012.1
20260509054910 70 58 0.9 1.7 0.00 0.00 0.00 87 1012.1
20260509054407 70 79 0.9 1.7 0.00 0.00 0.00 87 1011.8
20260509053905 70 102 0.9 1.7 0.00 0.00 0.00 87 1011.7
20260509053402 70 133 0.0 1.7 0.00 0.00 0.00 86 1012.2
20260509052900 70 149 0.9 1.7 0.00 0.00 0.00 86 1012.2
20260509052357 71 43 0.0 1.7 0.00 0.00 0.00 86 1012.2
20260509051855 71 115 0.9 1.7 0.00 0.00 0.00 85 1012.4
20260509051353 71 58 0.9 1.7 0.00 0.00 0.00 85 1012.8
20260509050849 71 152 0.0 1.7 0.00 0.00 0.00 85 1012.9
20260509050346 71 112 0.0 1.7 0.00 0.00 0.00 84 1012.5
20260509045843 71 155 0.9 2.6 0.00 0.41 0.41 84 1013.0
20260509045340 71 74 1.7 1.7 0.00 0.41 0.41 84 1013.0
20260509044837 72 112 0.0 0.9 0.00 0.41 0.41 83 1012.1
20260509044335 72 125 0.0 1.7 0.00 0.41 0.41 83 1011.9
20260509043831 72 107 0.0 0.9 0.00 0.41 0.41 83 1011.7
20260509043327 72 126 0.9 1.7 0.00 0.41 0.41 83 1011.8
20260509042823 72 127 1.7 1.7 0.00 0.41 0.41 83 1011.2
20260509042320 72 121 1.7 1.7 0.00 0.41 0.41 83 1011.2
20260509041816 72 98 0.0 1.7 0.00 0.41 0.41 83 1011.0
20260509041314 72 111 0.9 1.7 0.00 0.41 0.41 83 1010.8
20260509040812 72 64 0.0 1.7 0.00 0.41 0.41 83 1011.0
20260509040309 72 140 0.0 1.7 0.00 0.41 0.41 83 1011.1
20260509035806 72 142 1.7 1.7 0.00 0.41 0.41 82 1011.2
20260509035306 72 117 0.0 1.7 0.00 0.41 0.41 82 1011.2
20260509034759 72 141 0.0 1.7 0.00 0.41 0.41 82 1011.2
20260509034257 72 142 0.9 1.7 0.00 0.41 0.41 81 1011.1
20260509033754 73 179 1.7 1.7 0.00 0.41 0.41 81 1011.4
20260509033251 73 180 1.7 2.6 0.00 0.41 0.41 81 1011.0
20260509032748 73 165 0.9 1.7 0.00 0.41 0.41 80 1011.4
20260509032244 73 158 0.9 2.6 0.00 0.41 0.41 80 1011.6
20260509031742 73 188 0.0 1.7 0.00 0.41 0.41 81 1011.6
20260509031240 73 128 0.9 2.6 0.00 0.41 0.41 80 1011.1
20260509030737 73 154 0.9 1.7 0.00 0.41 0.41 80 1011.2
20260509030235 73 162 0.9 3.5 0.00 0.41 0.41 79 1010.9
20260509025732 73 157 1.7 2.6 0.00 0.41 0.41 79 1010.3
20260509025227 73 148 1.7 2.6 0.00 0.41 0.41 79 1010.0
20260509024722 73 138 0.0 2.6 0.00 0.41 0.41 79 1010.0
20260509024218 73 148 1.7 3.5 0.00 0.41 0.41 79 1009.9
20260509023716 73 152 1.7 3.5 0.00 0.41 0.41 79 1010.1
20260509023213 73 39 0.9 1.7 0.00 0.41 0.41 79 1009.8
20260509022709 73 154 0.0 1.7 0.00 0.41 0.41 78 1009.7
20260509022207 73 148 1.7 2.6 0.00 0.41 0.41 78 1009.4
20260509021704 73 134 0.9 1.7 0.00 0.41 0.41 78 1009.6
20260509021201 73 151 1.7 1.7 0.00 0.41 0.41 78 1009.7
20260509020659 73 50 0.0 2.6 0.00 0.41 0.41 78 1009.3
20260509020156 73 54 1.7 2.6 0.00 0.41 0.41 77 1009.1
20260509015654 73 44 0.9 1.7 0.00 0.41 0.41 77 1009.1
20260509015152 74 129 0.9 1.7 0.00 0.41 0.41 77 1009.0
20260509014648 74 29 0.0 2.6 0.00 0.41 0.41 76 1009.1
20260509014145 74 140 0.9 1.7 0.00 0.41 0.41 76 1009.1
20260509013642 74 128 2.6 2.6 0.00 0.41 0.41 76 1009.4
20260509013138 74 144 1.7 2.6 0.00 0.41 0.41 76 1009.4
20260509012634 74 26 0.9 1.7 0.00 0.41 0.41 75 1009.7
20260509012131 74 164 1.7 2.6 0.00 0.41 0.41 75 1009.7
20260509011629 74 112 0.9 1.7 0.00 0.41 0.41 75 1009.8
20260509011126 74 92 1.7 1.7 0.00 0.41 0.41 75 1009.8
20260509010624 74 103 0.0 1.7 0.00 0.41 0.41 75 1009.7
20260509010120 74 40 0.0 1.7 0.00 0.41 0.41 74 1009.6
20260509005618 75 108 0.9 2.6 0.00 0.41 0.41 74 1009.7
20260509005113 75 134 1.7 2.6 0.00 0.41 0.41 74 1009.2
20260509004610 75 12 0.9 2.6 0.00 0.41 0.41 74 1009.4
20260509004107 75 135 1.7 1.7 0.00 0.41 0.41 74 1009.4
20260509003605 75 18 0.9 1.7 0.00 0.41 0.41 73 1009.1
20260509003102 75 75 0.9 2.6 0.00 0.41 0.41 73 1009.2
20260509002600 75 31 0.9 2.6 0.00 0.41 0.41 72 1009.1
20260509002057 75 32 0.9 1.7 0.00 0.41 0.41 72 1009.2
20260509001554 75 12 0.9 1.7 0.00 0.41 0.41 71 1009.1
20260509001050 75 69 0.9 1.7 0.00 0.41 0.41 71 1009.0
20260509000549 76 74 0.0 1.7 0.00 0.41 0.41 71 1008.7
20260509000044 76 89 0.0 1.7 0.00 0.41 0.41 70 1009.3
20260508235542 76 44 2.6 2.6 0.00 0.41 0.41 69 1009.2
20260508235038 76 172 0.0 3.5 0.00 0.41 0.41 68 1009.3
20260508234536 77 356 0.9 1.7 0.00 0.41 0.41 68 1009.5
20260508234033 77 40 0.0 2.6 0.00 0.41 0.41 68 1009.4
20260508233532 77 140 0.9 2.6 0.00 0.41 0.41 67 1009.4
20260508233029 77 237 0.9 2.6 0.00 0.41 0.41 66 1009.4
20260508232526 77 358 0.0 3.5 0.00 0.41 0.41 66 1009.4
20260508232023 77 139 1.7 2.6 0.00 0.41 0.41 66 1009.7
20260508231520 77 186 0.0 1.7 0.00 0.41 0.41 66 1009.7
20260508231017 78 126 2.6 3.5 0.00 0.41 0.41 65 1009.6
20260508230514 78 165 0.0 1.7 0.00 0.41 0.41 65 1009.5
20260508230010 78 176 0.9 1.7 0.00 0.41 0.41 65 1009.5
20260508225508 78 148 1.7 1.7 0.00 0.41 0.41 65 1009.5
20260508225004 78 146 0.9 3.5 0.00 0.41 0.41 64 1009.4
20260508224502 79 14 0.9 3.5 0.00 0.41 0.41 63 1009.5
20260508223959 79 154 0.0 2.6 0.00 0.41 0.41 62 1009.7
20260508223457 80 295 1.7 3.5 0.00 0.41 0.41 60 1009.5
20260508222954 81 219 0.9 1.7 0.00 0.41 0.41 59 1009.6
20260508222452 81 73 0.9 2.6 0.00 0.41 0.41 58 1009.5
20260508221948 81 354 1.7 2.6 0.00 0.41 0.41 57 1009.5
20260508221444 80 320 0.0 3.5 0.00 0.41 0.41 58 1009.8
20260508220940 81 337 1.7 2.6 0.00 0.41 0.41 57 1009.6
20260508220437 81 18 1.7 2.6 0.00 0.41 0.41 55 1009.7
20260508215933 82 214 0.9 1.7 0.00 0.41 0.41 55 1009.6
20260508215431 81 343 1.7 2.6 0.00 0.41 0.41 56 1009.7
20260508214927 81 135 0.0 2.6 0.00 0.41 0.41 56 1009.6
20260508214425 81 162 1.7 4.3 0.00 0.41 0.41 56 1009.6
20260508213920 80 47 1.7 3.5 0.00 0.41 0.41 58 1009.6
20260508213418 81 89 0.0 2.6 0.00 0.41 0.41 57 1010.0
20260508212913 80 344 2.6 4.3 0.00 0.41 0.41 57 1010.0
20260508212410 80 191 1.7 2.6 0.00 0.41 0.41 57 1009.9
20260508211906 81 163 1.7 1.7 0.00 0.41 0.41 57 1009.9
20260508211402 81 181 2.6 2.6 0.00 0.41 0.41 56 1010.0
20260508210900 81 261 0.9 3.5 0.00 0.41 0.41 56 1010.1
20260508210356 81 346 1.7 2.6 0.00 0.41 0.41 58 1010.3
20260508205852 80 343 0.9 3.5 0.00 0.41 0.41 59 1010.3
20260508205349 80 211 0.0 1.7 0.00 0.41 0.41 58 1010.4
20260508204845 79 175 0.0 2.6 0.00 0.41 0.41 58 1010.2
20260508204343 79 216 0.0 2.6 0.00 0.41 0.41 57 1010.2
20260508203838 79 200 0.9 2.6 0.00 0.41 0.41 58 1010.3
20260508203335 79 180 2.6 2.6 0.00 0.41 0.41 59 1010.6
20260508202830 77 139 0.9 2.6 0.00 0.41 0.41 63 1010.9
20260508202328 76 146 1.7 2.6 0.00 0.41 0.41 63 1011.2
20260508201825 75 148 0.9 2.6 0.00 0.41 0.41 63 1011.7
20260508201322 75 140 2.6 3.5 0.00 0.41 0.41 64 1011.9
20260508200818 75 158 3.5 3.5 0.00 0.41 0.41 64 1011.9
20260508200315 75 139 1.7 3.5 0.00 0.41 0.41 64 1012.1
20260508195811 75 83 1.7 3.5 0.00 0.41 0.41 64 1012.1
20260508195308 75 79 2.6 2.6 0.00 0.41 0.41 63 1012.2
20260508194804 76 102 1.7 1.7 0.00 0.41 0.41 63 1012.1
20260508194301 76 85 1.7 2.6 0.00 0.41 0.41 61 1012.0
20260508193758 77 143 1.7 1.7 0.00 0.41 0.41 62 1012.2
20260508193255 77 31 0.9 1.7 0.00 0.41 0.41 61 1012.0
20260508192751 77 71 1.7 1.7 0.00 0.41 0.41 61 1012.1
20260508192248 77 87 2.6 2.6 0.00 0.41 0.41 60 1012.1
20260508191746 77 168 1.7 2.6 0.00 0.41 0.41 60 1012.2
20260508191243 78 162 1.7 3.5 0.00 0.41 0.41 61 1012.2
20260508190740 78 352 0.0 2.6 0.00 0.41 0.41 60 1012.1
20260508190236 78 154 0.9 2.6 0.00 0.41 0.41 60 1012.2
20260508185732 78 230 0.0 1.7 0.00 0.41 0.41 59 1012.3
20260508185230 79 242 0.0 1.7 0.00 0.41 0.41 58 1012.3
20260508184727 79 169 0.0 1.7 0.00 0.41 0.41 58 1012.2
20260508184224 79 163 1.7 1.7 0.00 0.41 0.41 58 1012.2
20260508183721 79 75 0.0 2.6 0.00 0.41 0.41 57 1012.3
20260508183217 80 7 0.0 1.7 0.00 0.41 0.41 56 1012.5
20260508182713 81 72 2.6 2.6 0.00 0.41 0.41 53 1012.6
20260508182210 81 203 0.0 2.6 0.00 0.41 0.41 55 1012.4
20260508181706 81 246 0.0 1.7 0.00 0.41 0.41 56 1012.6
20260508181203 80 107 0.0 3.5 0.00 0.41 0.41 57 1012.9
20260508180700 79 339 0.9 1.7 0.00 0.41 0.41 59 1013.0
20260508180157 79 327 1.7 2.6 0.00 0.41 0.41 57 1012.9
20260508175653 79 167 1.7 3.5 0.00 0.41 0.41 56 1012.9
20260508175149 79 350 0.9 2.6 0.00 0.41 0.41 59 1013.1
20260508174648 78 82 0.0 3.5 0.00 0.41 0.41 58 1013.3
20260508174144 77 145 1.7 2.6 0.00 0.41 0.41 61 1013.2
20260508173641 77 91 0.9 2.6 0.00 0.41 0.41 60 1013.4
20260508173137 77 89 1.7 3.5 0.00 0.41 0.41 59 1013.4
20260508172634 77 159 1.7 2.6 0.00 0.41 0.41 61 1013.5
20260508172131 77 48 0.0 1.7 0.00 0.41 0.41 63 1013.4
20260508171628 77 210 0.9 2.6 0.00 0.41 0.41 61 1013.7
20260508171124 77 177 1.7 2.6 0.00 0.41 0.41 63 1013.6
20260508170621 77 95 1.7 2.6 0.00 0.41 0.41 61 1013.8
20260508170119 76 35 0.0 3.5 0.00 0.41 0.41 64 1013.8
20260508165616 76 329 0.9 2.6 0.00 0.41 0.41 63 1013.8
20260508165113 76 0 0.9 2.6 0.00 0.41 0.41 64 1013.9
20260508164609 75 161 3.5 5.2 0.00 0.41 0.41 62 1013.9
20260508164106 75 55 1.7 2.6 0.00 0.41 0.41 66 1014.3
20260508163603 74 142 1.7 4.3 0.00 0.41 0.41 65 1014.4
20260508163100 73 144 1.7 4.3 0.00 0.41 0.41 67 1014.4
20260508162556 72 140 1.7 3.5 0.00 0.41 0.41 69 1014.5